Willard, MO

6:44 AM CST on February 24, 2017 (GMT -0600)
Springfield-Branson Regional

Weather History for KSGF - October, 2012

Change the Weather History Date:

Wednesday, October 17, 2012

  Actual Average Record
Temperature  
Mean Temperature 58 °F 58 °F  
Max Temperature 67 °F 69 °F 89 °F (1964)
Min Temperature 49 °F 46 °F 25 °F (1976)
Degree Days  
Heating Degree Days 7 8  
Month to date heating degree days 165 108  
Since 1 July heating degree days 206 163  
Cooling Degree Days 0 1  
Month to date cooling degree days 1 23  
Year to date cooling degree days 1744 1382  
Growing Degree Days 8 (Base 50)    
Moisture  
Dew Point 51 °F    
Average Humidity 73    
Maximum Humidity 90    
Minimum Humidity 56    
Precipitation  
Precipitation 0.29 in 0.11 in 1.46 in (1981)
Month to date precipitation 3.74 1.94  
Year to date precipitation 28.26 36.66  
Snow  
Snow 0.00 in - - ()
Month to date snowfall 0.0  
Since 1 July snowfall 0.0  
Since 1 September snowfall 0.0  
Snow Depth 0.00 in    
Sea Level Pressure  
Sea Level Pressure 29.55 in    
Wind  
Wind Speed 11 mph (SW)    
Max Wind Speed 32 mph    
Max Gust Speed 40 mph    
Visibility 9 miles    
Events Rain    
T = Trace of Precipitation, MM = Missing Value Source: NWS Daily Summary

Daily Weather History Graph

Daily Weather History Graph

Search for Another Location

Airport or City:

Trip Planner

Search our weather history database for the weather conditions in past years. The results will help you decide how hot, cold, wet, or windy it might be!

Date:

Astronomy

Oct. 17, 2012 Rise Set
Actual Time 7:23 AM CDT 6:33 PM CDT
Civil Twilight 6:57 AM CDT 6:59 PM CDT
Nautical Twilight 6:27 AM CDT 7:29 PM CDT
Astronomical Twilight 5:56 AM CDT 7:59 PM CDT
Moon 9:54 AM CDT (10/17) 8:14 PM CDT (10/17)
Length of Visible Light 12h 02m
Length of Day
11h 09m
Waxing Crescent, 7% of the Moon is Illuminated
Oct 17
Waxing Crescent
Oct 21
First Quarter
Oct 29
Full
Nov 6
Last Quarter
Nov 13
New

Hourly Weather History & Observations

Time (CDT) Temp. Dew Point Humidity Pressure Visibility Wind Dir Wind Speed Gust Speed Precip Events Conditions
12:52 AM 57.9 °F 43.0 °F 58% 29.59 in 10.0 mi SSE 12.7 mph - N/A   Clear
1:52 AM 57.0 °F 45.0 °F 64% 29.58 in 10.0 mi South 12.7 mph - N/A   Clear
2:52 AM 57.0 °F 46.0 °F 67% 29.57 in 10.0 mi SSE 13.8 mph - N/A   Clear
3:52 AM 57.0 °F 46.9 °F 69% 29.55 in 10.0 mi South 12.7 mph - N/A   Scattered Clouds
4:52 AM 55.9 °F 48.9 °F 77% 29.53 in 10.0 mi South 13.8 mph - N/A   Scattered Clouds
5:52 AM 55.9 °F 50.0 °F 80% 29.52 in 10.0 mi South 12.7 mph - N/A   Clear
6:14 AM 57.2 °F 51.8 °F 82% 29.53 in 10.0 mi SSE 15.0 mph - N/A   Mostly Cloudy
6:52 AM 57.9 °F 52.0 °F 81% 29.51 in 10.0 mi SSE 15.0 mph - N/A   Overcast
7:52 AM 59.0 °F 53.1 °F 81% 29.50 in 10.0 mi SSE 15.0 mph 21.9 mph N/A   Overcast
8:52 AM 61.0 °F 55.0 °F 81% 29.51 in 10.0 mi South 11.5 mph 19.6 mph N/A   Overcast
9:52 AM 62.1 °F 55.9 °F 80% 29.53 in 10.0 mi South 12.7 mph - N/A   Overcast
10:52 AM 62.1 °F 57.0 °F 84% 29.54 in 10.0 mi South 11.5 mph - 0.00 in   Overcast
11:24 AM 64.4 °F 57.2 °F 77% 29.54 in 10.0 mi SSE 13.8 mph - N/A   Overcast
11:52 AM 64.0 °F 57.9 °F 80% 29.52 in 10.0 mi South 15.0 mph - N/A   Overcast
12:39 PM 64.4 °F 57.2 °F 77% 29.52 in 10.0 mi South 15.0 mph - N/A   Overcast
12:52 PM 66.9 °F 57.9 °F 73% 29.49 in 10.0 mi South 16.1 mph 21.9 mph N/A   Overcast
1:52 PM 66.9 °F 57.9 °F 73% 29.45 in 10.0 mi South 20.7 mph 27.6 mph N/A   Overcast
2:32 PM 60.8 °F 55.4 °F 82% 29.53 in 2.0 mi NW 27.6 mph 40.3 mph 0.00 in Rain Light Rain
2:35 PM 55.4 °F 51.8 °F 88% 29.52 in 1.0 mi NNW 18.4 mph 40.3 mph 0.07 in Rain Heavy Rain
2:46 PM 55.4 °F 53.6 °F 94% 29.50 in 2.0 mi NNW 15.0 mph - 0.26 in Rain Heavy Rain
2:52 PM 55.9 °F 54.0 °F 93% 29.47 in 5.0 mi North 11.5 mph 20.7 mph 0.27 in Rain Light Rain
3:52 PM 61.0 °F 55.0 °F 81% 29.50 in 10.0 mi West 4.6 mph - 0.02 in   Scattered Clouds
4:30 PM 62.6 °F 57.2 °F 82% 29.51 in 10.0 mi Variable 3.5 mph - N/A   Mostly Cloudy
4:43 PM 60.8 °F 57.2 °F 88% 29.51 in 10.0 mi WSW 4.6 mph - N/A   Mostly Cloudy
4:52 PM 61.0 °F 57.0 °F 87% 29.50 in 10.0 mi West 3.5 mph - N/A   Mostly Cloudy
5:39 PM 59.0 °F 51.8 °F 77% 29.56 in 10.0 mi WNW 13.8 mph 27.6 mph 0.00 in   Mostly Cloudy
5:52 PM 59.0 °F 51.1 °F 75% 29.55 in 10.0 mi NW 12.7 mph - 0.00 in   Scattered Clouds
6:52 PM 55.0 °F 46.9 °F 74% 29.60 in 10.0 mi NW 6.9 mph - N/A   Clear
7:52 PM 53.1 °F 46.9 °F 80% 29.62 in 10.0 mi West 5.8 mph - N/A   Clear
8:52 PM 54.0 °F 44.1 °F 69% 29.65 in 10.0 mi WNW 8.1 mph - N/A   Clear
9:52 PM 53.1 °F 39.0 °F 59% 29.68 in 10.0 mi WNW 6.9 mph - N/A   Clear
10:52 PM 51.1 °F 37.0 °F 59% 29.69 in 10.0 mi WNW 5.8 mph - N/A   Clear
11:52 PM 50.0 °F 36.0 °F 59% 29.70 in 10.0 mi West 8.1 mph - N/A   Clear